Retour au catalogue

ONEWEB-0162

ActifCommunicationsPO
NORAD 48056·PAYLOAD·🇬🇧 United Kingdom

Lancé Mar 25, 2021 depuis Vostochny Cosmodrome

Loading…

Prochains Passages (prochaines 24 heures)

TLE

FraisSource: CelesTrak SupGP

Époque: Sep 14, 2026, 15:50 UTC

1 48056C 21025Q   26257.66025880 -.00000495  00000+0 -13584-2 0  2579
2 48056  87.8928 302.4240 0001939 101.1138   1.6157 13.13474678    14

Suivez ONEWEB-0162 en temps réel avec AllMySat

Download on the App Store